Regional Weather Roundup
Issued by NWS

Home | Current Version | Previous Version | Text Only | Print | Product List | Glossary Off
Versions: 1 2 3 4 5 6 7 8 9 10 11 12 13 14 15 16 17 18 19 20 21 22 23 24 25 26 27 28 29 30 31 32 33 34 35 36 37 38 39 40 41 42 43 44 45 46 47 48 49 50

000
ASUS43 KDTX 090701
RWRMI
MICHIGAN HOURLY REGIONAL WEATHER ROUNDUP
NATIONAL WEATHER SERVICE DETROIT/PONTIAC MI
200 AM EST FRI DEC 09 2016

NOTE: "FAIR" INDICATES FEW OR NO CLOUDS BELOW 12,000 FEET WITH NO
SIGNIFICANT WEATHER AND/OR OBSTRUCTION TO VISIBILITY.

MIZ047>049-052>055-059>063-066>070-074>076-081>083-090800-
SOUTHEAST LOWER MICHIGAN

CITY           SKY/WX    TMP DP  RH WIND       PRES   REMARKS
ADRIAN         LGT SNOW  23  20  88 W12       30.30R FOG     WCI  12
ALMA           CLOUDY    28  25  89 W6        30.26R WCI  21
ANN ARBOR      CLOUDY    25  22  88 SW9       30.26R WCI  15
BAD AXE        PTCLDY    26  19  77 W8        30.19R WCI  17
CARO           CLOUDY    26  24  91 W8        30.21R WCI  17
DETROIT CITY   CLOUDY    27  23  85 W9        30.26R WCI  18
DETROIT        FLURRIES  27  22  81 W14       30.28R WCI  16
FLINT          CLOUDY    27  24  89 W12       30.24R WCI  17
GROSSE ILE     CLOUDY    26  21  82 W12G20    30.26R WCI  15
HILLSDALE      FLURRIES  23  19  86 W13       30.26S WCI  11
HOWELL         FLURRIES  28  25  89 W7        30.24R WCI  20

CITY           SKY/WX    TMP DP  RH WIND       PRES   REMARKS
JACKSON        LGT SNOW  24  20  84 W15       30.26S FOG     WCI  11
LAMBERTVILLE   CLOUDY    25  19  79 W9        30.31R WCI  15
LANSING        LGT SNOW  27  24  89 W7        30.27R FOG     WCI  19
LAPEER         NOT AVBL
MASON          LGT SNOW  26  25  96 W3        30.26R
MONROE         CLOUDY    25  21  83 W14       30.29R WCI  14
MT. CLEMENS    CLOUDY    29  22  76 W10       30.22R WCI  20
PONTIAC        FLURRIES  27  22  81 W12       30.22R WCI  17
PORT HOPE        N/A     29  21  72 NW20G30   30.16R WCI  16
PORT HURON     CLEAR     27  23  86 W3        30.22R
TRI CITIES     CLOUDY    25  23  92 W8        30.24R WCI  16
MIDLAND        CLOUDY    25  21  86 W6        30.24R WCI  18
TROY           CLOUDY    29  24  80 W12       30.26R WCI  20
SAGINAW HB     MOCLDY    28  23  80 W8        30.23R WCI  20
$$
MIZ043>046-050>051-056>058-064>065-071>073-077>080-090800-
SOUTHWEST LOWER MICHIGAN

CITY           SKY/WX    TMP DP  RH WIND       PRES   REMARKS
BATTLE CREEK   LGT SNOW  26  25  96 W12       30.28S FOG     WCI  16
BENTON HARBOR  CLOUDY    30  21  69 W17       30.34S WCI  18
BIG RAPIDS     CLOUDY    26  22  85 NW7       30.24R WCI  18
COLDWATER      CLOUDY    23  21  89 SW13      30.30S WCI  12
FREMONT        FLURRIES  27  24  90 NW7       30.28R WCI  19
HOLLAND        LGT SNOW  30  25  81 NW6G18    30.30R WCI  24
GRAND RAPIDS   LGT SNOW  28  24  85 NW10      30.28S VSB 1   WCI  19
IONIA          LGT SNOW  27  26  94 W7        30.26R WCI  20
KALAMAZOO      LGT SNOW  27  23  85 SW9       30.29S FOG     WCI  18
LUDINGTON      FLURRIES  29  21  69 NW12G25   30.29R WCI  20
MARSHALL       LGT SNOW  24  22  93 SW8       30.28R WCI  15
MOUNT PLEASANT MOCLDY    25  22  87 W6        30.24R WCI  18
MUSKEGON       CLOUDY    32  20  61 NW13      30.29R WCI  22
SOUTH HAVEN    CLOUDY    31  27  86 W12G17    30.31R WCI  22
$$
MIZ016>042-090800-
NORTHERN LOWER MICHIGAN

CITY           SKY/WX    TMP DP  RH WIND       PRES   REMARKS
ALPENA         MOCLDY    22  16  78 NW5       30.19R WCI  16
BEAVER ISLAND  CLOUDY    26  18  73 N7        30.23R WCI  18
BELLAIRE       LGT SNOW  26  24  91 NW5       30.22S VSB 1   WCI  20
CADILLAC       MOCLDY    21  19  91 W3        30.20R
CHARLEVOIX     MOCLDY    28  22  78 N12       30.24R WCI  18
FRANKFORT      FLURRIES  29  20  67 NW14G23   30.26S WCI  19
GAYLORD        LGT SNOW  23  19  85 CALM      30.16R FOG
GRAYLING       FLURRIES  24  22  92 W5        30.19R WCI  18
HARBOR SPRINGS LGT SNOW  24  21  88 CALM      30.21R
HOUGHTON LAKE  FLURRIES  24  20  84 W10       30.19R WCI  14
MANISTEE       FLURRIES  29  18  63 NW16G22   30.27R WCI  17
OSCODA         MOCLDY    24  19  84 MISG      30.19R
PELLSTON       FLURRIES  23  17  78 N9        30.22R WCI  13
ROGERS CITY    CLOUDY    26  14  62 N10       30.21R WCI  16
TRAVERSE CITY  CLOUDY    29  18  63 W13       30.23R WCI  19
$$
MIZ007>008-015-090800-
EASTERN UPPER MICHIGAN

CITY           SKY/WX    TMP DP  RH WIND       PRES   REMARKS
KINROSS        FLURRIES  17  11  77 NW5       30.21R WCI  10
MACKINAC ISLAN CLOUDY    22  12  67 N8        30.21R WCI  12
NEWBERRY       PTCLDY    18  15  88 CALM      30.21R
S. S. MARIE    MOCLDY    21   9  59 N9        30.20R WCI  11
MUNISING         N/A     28  22  78 N12       30.24R WCI  18
$$
MIZ004>006-011>014-085-090800-
CENTRAL UPPER MICHIGAN

CITY           SKY/WX    TMP DP  RH WIND       PRES   REMARKS
MANISTIQUE     LGT SNOW  22  22  98 W7        30.25R WCI  14
ESCANABA       CLEAR     20  14  77 W8        30.30R WCI  10
MENOMINEE      CLEAR     22  13  68 NW9G18    30.33S WCI  12
SAWYER-GWINN   PTCLDY    15  12  88 W8        30.26R WCI   4
$$
MIZ001>003-009>011-084-090800-
WESTERN UPPER MICHIGAN

CITY           SKY/WX    TMP DP  RH WIND       PRES   REMARKS
IRON MOUNTAIN  CLEAR     17  10  74 NW9       30.29R WCI   6
HOUGHTON       LGT SNOW  20  16  84 NW9       30.29R VSB 3/4 WCI   9
COPPER HARBOR    N/A     26  20  77 N16       30.29R WCI  14
IRONWOOD       FLURRIES  18  11  74 NW10      30.36R WCI   6
$$

ABBREVIATIONS USED IN REMARKS
   TC - TEMPERATURE IN CELSIUS
  WCI - WIND CHILL INDEX
   HX - HEAT INDEX
  VSB - VISIBILITY




USA.gov is the U.S. government's official web portal to all federal, state and local government web resources and services.